Regional Weather Roundup
Issued by NWS

Home | Current Version | Previous Version | Text Only | Print | Product List | Glossary Off
Versions: 1 2 3 4 5 6 7 8 9 10 11 12 13 14 15 16 17 18 19 20 21 22 23 24 25 26 27 28 29 30 31 32 33 34 35 36 37 38 39 40 41 42 43 44 45 46 47 48 49 50

000
ASUS45 KPSR 270310
RWRAZ

ARIZONA REGIONAL HOURLY WEATHER ROUNDUP
NATIONAL WEATHER SERVICE PHOENIX AZ
800 PM MST FRI DEC 26 2014

NOTE: FAIR INDICATES FEW OR NO CLOUDS BELOW 12,000 FEET WITH NO
SIGNIFICANT WEATHER AND/OR OBSTRUCTIONS TO VISIBILITY.

AZZ001>003-036-270400-
NORTHWEST ARIZONA

CITY           SKY/WX    TMP DP  RH WIND       PRES   REMARKS
BULLHEAD CITY  CLEAR     48  14  25 CALM      30.16S
KINGMAN        CLEAR     31  12  45 E8        30.11R WCI  23
$$

AZZ004>008-015-016-018-270400-
NORTH CENTRAL ARIZONA

CITY           SKY/WX    TMP DP  RH WIND       PRES   REMARKS
GRAND CANYON   CLEAR     13  10  88 CALM      30.03R
PRESCOTT       CLEAR     26  11  52 NW8       30.04R WCI  18
FLAGSTAFF      PTCLDY    19   8  62 CALM      29.99R
PAYSON         MOCLDY    32  16  51 N3        30.05R
PAGE           CLOUDY    34   8  33 W8        30.05R WCI  27
$$

AZZ009>014-017-270400-
NORTHEAST ARIZONA

CITY           SKY/WX    TMP DP  RH WIND       PRES   REMARKS
WINSLOW        CLOUDY    35  13  40 N6        30.04R WCI  30
SAINT JOHNS    CLOUDY    29  18  63 E5        30.01R WCI  24
WINDOW ROCK    PTCLDY    19  13  77 CALM      30.00R
SHOW LOW       MOCLDY    23   7  50 W5        30.02R WCI  17
$$

AZZ023-270400-
GREATER PHOENIX AREA

CITY           SKY/WX    TMP DP  RH WIND       PRES   REMARKS
PHOENIX        CLEAR     47  25  42 SW3       30.07R
BUCKEYE          N/A     39  21  48 N6        30.09R WCI  35
GLENDALE       CLEAR     48  23  37 CALM      30.09R
LUKE AFB       CLEAR     46  23  40 W5        30.07R
DEER VALLEY    CLEAR     41  24  51 CALM      30.07R
SCOTTSDALE     CLEAR     45  23  42 CALM      30.09R
MESA-FALCON    CLEAR     45  18  33 CALM      30.07R
MESA-GATEWAY   CLEAR     43  21  42 CALM      30.09S
CHANDLER       CLEAR     45  21  39 CALM      30.08R
$$

AZZ027-028-270400-
SOUTHWEST MARICOPA COUNTY AND PINAL COUNTY

CITY           SKY/WX    TMP DP  RH WIND       PRES   REMARKS
CASA GRANDE    CLEAR     43  18  36 CALM      30.08S
$$

AZZ503-504-507>509-270400-
SOUTHEAST ARIZONA

CITY           SKY/WX    TMP DP  RH WIND       PRES   REMARKS
TUCSON         CLEAR     43  19  38 NW8       30.07R
DAVIS-MONTHAN  CLEAR     41  19  40 CALM      30.05R
RYAN FIELD       N/A     43  28  56 NW6       30.08R
NOGALES        CLEAR     32  16  51 E3        30.03R
SIERRA VISTA   CLEAR     33  15  47 W6        30.03R WCI  28
DOUGLAS        PTCLDY    33  20  58 NW13      30.03R WCI  24
SAFFORD        CLEAR     38  17  42 NW9       30.02R WCI  31
$$

AZZ020-021-025-026-031-270400-
SOUTHWEST ARIZONA

CITY           SKY/WX    TMP DP  RH WIND       PRES   REMARKS
YUMA           CLEAR    N/A N/A N/A NE3       30.13R
$$

CAZ031-033-041-043-047-048-061-270400-
SOUTHERN CALIFORNIA

CITY           SKY/WX    TMP DP  RH WIND       PRES   REMARKS
DOWNTOWN L.A.  CLEAR     55  25  31 CALM      30.12R
L.A. AIRPORT   CLEAR     56  16  20 N6        30.13R
SAN DIEGO      CLEAR     57  32  38 N7        30.12R
BURBANK        CLEAR     51  18  27 N6        30.12R
ONTARIO        CLEAR     54   7  15 NE8G20    30.13R
RIVERSIDE      CLEAR     53  11  18 VRB7G20   30.14R
PALM SPRINGS   CLEAR     57   7  13 VRB5      30.19R
EL CENTRO NAS  CLEAR     46  20  35 VRB5      30.15R
IMPERIAL       CLEAR     50  20  30 NW5       30.14R
BLYTHE         CLEAR     48  16  27 N9        30.14R
NEEDLES        CLEAR     47  12  24 NW8       30.15R
$$

NVZ020-UTZ003-270400-
SOUTHERN NEVADA-UTAH

CITY           SKY/WX    TMP DP  RH WIND       PRES   REMARKS
LAS VEGAS      PTCLDY    46   9  22 VRB6      30.14R
SALT LAKE CITY MOCLDY    25  17  72 SW3       30.17R
$$

NMZ009-TXZ055-270400-
NEW MEXICO-WEST TEXAS

CITY           SKY/WX    TMP DP  RH WIND       PRES   REMARKS
ALBUQUERQUE    PTCLDY    30  10  43 VRB3      30.03R
EL PASO        CLOUDY    38  33  82 S8        30.01R WCI  32
$$


........................KEY........................
SKY/WX - SKY CONDITION/WEATHER
TMP    - TEMPERATURE IN FAHRENHEIT
DP     - DEW POINT IN FAHRENHEIT
RH     - RELATIVE HUMIDITY IN PERCENT
WIND   - DIRECTION AND SPEED IN MILES PER HOUR (MPH)
VRB    - VARIABLE WIND DIRECTION
PRES   - MEAN SEA LEVEL PRESSURE IN INCHES OF MERCURY
         F - FALLING PRESSURE   R - RISING PRESSURE
         S - STEADY PRESSURE
VSB    - VISIBILITY IN MILES
HX     - HEAT INDEX IN FAHRENHEIT
WCI    - WIND CHILL INDEX IN FAHRENHEIT
TC     - TEMPERATURE IN CELSIUS WHICH IS ALSO KNOWN AS
         TEMPERATURE IN CENTIGRADE
AFB    - AIR FORCE BASE
         LUKE AFB IS LUKE AIR FORCE BASE
         DAVIS-MONTHAN IS DAVIS-MONTHAN AIR FORCE BASE
NAS    - NAVAL AIR STATION
         EL CENTRO NAS IS EL CENTRO NAVAL AIR STATION
N/A    - NOT AVAILABLE



USA.gov is the U.S. government's official web portal to all federal, state and local government web resources and services.